Willimantic, CT

2:43 PM EDT on October 14, 2019 (GMT -0400)
Windham

Weather History for KIJD - August, 2019

Change the Weather History Date:

Thursday, August 1, 2019

  Actual Average Record
Temperature  
Mean Temperature 74 °F -  
Max Temperature 86 °F 82 °F 94 °F (1955)
Min Temperature 62 °F 60 °F 41 °F (1964)
Cooling Degree Days 9    
Growing Degree Days 24 (Base 50)    
Moisture  
Dew Point 63 °F    
Average Humidity 79    
Maximum Humidity 100    
Minimum Humidity 40    
Precipitation  
Precipitation 0.00 in - - ()
Sea Level Pressure  
Sea Level Pressure 30.06 in    
Wind  
Wind Speed 2 mph (North)    
Max Wind Speed 12 mph    
Max Gust Speed -    
Visibility 9 miles    
Events      
Averages and records for this station are not official NWS values.
T = Trace of Precipitation, MM = Missing Value Source: NWS Daily Summary

Daily Weather History Graph

Daily Weather History Graph

Search for Another Location

Airport or City:

Astronomy

Aug. 01, 2019 Rise Set
Actual Time 5:42 AM EDT 8:06 PM EDT
Civil Twilight 5:11 AM EDT 8:38 PM EDT
Nautical Twilight 4:32 AM EDT 9:16 PM EDT
Astronomical Twilight 3:48 AM EDT 10:00 PM EDT
Moon 6:03 AM EDT (8/1) 8:51 PM EDT (8/1)
Length of Visible Light 15h 27m
Length of Day
14h 24m
New Moon, 0% of the Moon is Illuminated
Aug 1
New Moon
Aug 7
First Quarter
Aug 15
Full
Aug 23
Last Quarter
Aug 30
New

Hourly Weather History & Observations

Time (EDT) Temp. Heat Index Dew Point Humidity Pressure Visibility Wind Dir Wind Speed Gust Speed Precip Events Conditions
12:13 AM 68.0 °F - 66.9 °F 96% 30.04 in 10.0 mi Calm Calm - N/A   Partly Cloudy
12:32 AM 68.0 °F - 66.9 °F 96% 30.04 in 9.0 mi Calm Calm - N/A   Mostly Cloudy
12:52 AM 68.0 °F - 66.9 °F 96% 30.04 in 8.0 mi Calm Calm - N/A   Overcast
1:52 AM 66.9 °F - 66.0 °F 97% 30.03 in 8.0 mi Calm Calm - N/A   Overcast
2:24 AM 66.9 °F - 64.9 °F 93% 30.04 in 9.0 mi Calm Calm - N/A   Scattered Clouds
2:31 AM 66.0 °F - 64.9 °F 96% 30.04 in 1.8 mi North 3.5 mph - N/A   Scattered Clouds
2:37 AM 66.0 °F - 66.0 °F 100% 30.04 in 0.8 mi NNW 3.5 mph - N/A   Mist
2:49 AM 66.2 °F - 66.2 °F 100% 30.04 in 1.8 mi Calm Calm - N/A   Mostly Cloudy
2:52 AM 66.0 °F - 66.0 °F 100% 30.03 in 3.0 mi Calm Calm - N/A   Mostly Cloudy
3:09 AM 66.0 °F - 64.9 °F 96% 30.04 in 8.0 mi Calm Calm - N/A   Scattered Clouds
3:52 AM 66.0 °F - 64.9 °F 96% 30.03 in 10.0 mi Calm Calm - N/A   Clear
4:17 AM 66.0 °F - 64.9 °F 96% 30.03 in 10.0 mi Calm Calm - N/A   Scattered Clouds
4:26 AM 66.0 °F - 64.9 °F 96% 30.03 in 10.0 mi Calm Calm - N/A   Mostly Cloudy
4:52 AM 66.0 °F - 64.9 °F 96% 30.04 in 10.0 mi Calm Calm - N/A   Overcast
5:15 AM 66.0 °F - 64.0 °F 93% 30.04 in 10.0 mi Calm Calm - N/A   Scattered Clouds
5:52 AM 64.0 °F - 63.0 °F 96% 30.04 in 7.0 mi Calm Calm - N/A   Mostly Cloudy
6:02 AM 64.0 °F - 63.0 °F 96% 30.05 in 8.0 mi WSW 3.5 mph - N/A   Scattered Clouds
6:52 AM 66.0 °F - 64.9 °F 96% 30.06 in 10.0 mi Calm Calm - N/A   Clear
7:52 AM 69.1 °F - 66.0 °F 90% 30.07 in 10.0 mi Calm Calm - N/A   Clear
8:52 AM 72.0 °F - 66.0 °F 81% 30.08 in 10.0 mi Calm Calm - N/A   Clear
9:52 AM 77.0 °F - 64.9 °F 66% 30.08 in 10.0 mi North 11.5 mph - N/A   Clear
10:52 AM 79.0 °F - 64.0 °F 60% 30.09 in 10.0 mi NNE 10.4 mph - N/A   Clear
11:52 AM 82.0 °F 83.4 °F 64.0 °F 54% 30.09 in 10.0 mi NE 8.1 mph - N/A   Clear
12:52 PM 82.9 °F 82.8 °F 59.0 °F 44% 30.09 in 10.0 mi NNW 6.9 mph - N/A   Clear
1:52 PM 84.0 °F 83.8 °F 59.0 °F 43% 30.09 in 10.0 mi NW 5.8 mph - N/A   Partly Cloudy
2:52 PM 84.0 °F 83.8 °F 59.0 °F 43% 30.08 in 10.0 mi Variable 4.6 mph - N/A   Scattered Clouds
3:52 PM 84.9 °F 84.2 °F 57.9 °F 40% 30.07 in 10.0 mi North 8.1 mph - N/A   Scattered Clouds
4:52 PM 84.9 °F 84.4 °F 59.0 °F 41% 30.06 in 10.0 mi North 8.1 mph - N/A   Clear
5:52 PM 84.0 °F 83.5 °F 57.9 °F 41% 30.06 in 10.0 mi NNW 4.6 mph - N/A   Clear
6:52 PM 82.0 °F 82.1 °F 59.0 °F 45% 30.06 in 10.0 mi NNW 4.6 mph - N/A   Clear
7:52 PM 77.0 °F - 61.0 °F 58% 30.07 in 10.0 mi North 3.5 mph - N/A   Clear
8:52 PM 71.1 °F - 61.0 °F 70% 30.09 in 10.0 mi NE 3.5 mph - N/A   Clear
9:52 PM 66.9 °F - 62.1 °F 84% 30.11 in 10.0 mi North 3.5 mph - N/A   Clear
10:52 PM 64.9 °F - 61.0 °F 87% 30.12 in 10.0 mi Calm Calm - N/A   Clear
11:52 PM 62.1 °F - 59.0 °F 90% 30.13 in 10.0 mi Calm Calm - N/A   Clear